Location: Killam
(52.7910°N, 111.8608°W)
Time: 15:03:40
(UTC+00:00)

S-56A Canister/Altair - All Passes

Search period start: 10 February 2026 00:00
Search period end: 20 February 2026 00:00
Orbit: 632 x 2485 km, 38.9° (Epoch: 10 February)

Date Brightness Start Highest point End Pass type
(mag) Time Alt. Az. Time Alt. Az. Time Alt. Az.
10 Feb - 09:05:07 10° SSW 09:11:47 26° SSE 09:20:42 10° E visible
10 Feb - 11:06:17 10° WSW 11:14:59 40° S 11:26:55 10° ESE visible
10 Feb - 13:09:13 10° WSW 13:19:06 37° SSW 13:31:35 10° SE visible
10 Feb - 15:14:09 10° W 15:23:03 22° SW 15:33:00 10° S daylight
11 Feb - 08:31:02 10° SSW 08:36:55 23° SE 08:44:37 10° E visible
11 Feb - 10:31:43 10° SW 10:39:48 38° S 10:51:02 10° ESE visible
11 Feb - 12:34:21 10° WSW 12:43:45 37° SSW 12:56:00 10° SE visible
11 Feb - 14:38:46 10° WSW 14:47:44 24° SSW 14:58:06 10° SSE daylight
12 Feb - 07:57:06 10° S 08:02:08 19° SE 08:08:29 10° ESE visible
12 Feb - 09:57:13 10° SW 10:04:42 35° SSE 10:15:09 10° ESE visible
12 Feb - 11:59:33 10° WSW 12:08:27 37° S 12:20:21 10° SE visible
12 Feb - 14:03:33 10° WSW 14:12:25 25° SSW 14:23:02 10° SSE visible
13 Feb - 07:23:26 10° S 07:27:25 15° SE 07:32:12 10° ESE visible
13 Feb - 09:22:49 10° SW 09:29:41 32° SSE 09:39:17 10° ESE visible
13 Feb - 11:24:51 10° WSW 11:33:12 37° S 11:44:39 10° SE visible
13 Feb - 13:28:28 10° WSW 13:37:08 27° SSW 13:47:49 10° SSE visible
13 Feb - 15:37:21 10° WSW 15:40:30 11° SW 15:43:48 10° SSW daylight
14 Feb - 06:50:19 10° SSE 06:52:46 12° SE 06:55:30 10° ESE night (unlit)
14 Feb - 08:48:30 10° SW 08:54:46 29° SSE 09:03:24 10° ESE visible
14 Feb - 10:50:13 10° WSW 10:58:02 36° S 11:08:54 10° ESE visible
14 Feb - 12:53:29 10° WSW 13:01:52 28° SSW 13:12:30 10° SSE visible
14 Feb - 15:00:39 10° WSW 15:05:21 13° SW 15:10:26 10° SSW daylight
15 Feb - 08:14:16 10° SSW 08:19:54 26° SSE 08:27:32 10° ESE visible
15 Feb - 10:15:39 10° WSW 10:22:55 35° S 10:33:09 10° ESE visible
15 Feb - 12:18:38 10° WSW 12:26:39 29° SSW 12:37:05 10° SSE visible
15 Feb - 14:24:42 10° WSW 14:30:11 14° SW 14:36:19 10° SSW daylight
16 Feb - 07:40:08 10° SSW 07:45:08 22° SSE 07:51:40 10° ESE visible
16 Feb - 09:41:09 10° WSW 09:47:54 34° S 09:57:23 10° ESE visible
16 Feb - 11:43:51 10° WSW 11:51:28 29° SSW 12:01:36 10° SE visible
16 Feb - 13:49:08 10° WSW 13:55:02 16° SW 14:01:48 10° S visible
17 Feb - 07:06:08 10° SSW 07:10:25 19° SSE 07:15:48 10° ESE night (unlit)
17 Feb - 09:06:43 10° SW 09:12:57 32° S 09:21:38 10° ESE visible
17 Feb - 11:09:09 10° WSW 11:16:21 29° SSW 11:26:04 10° SE visible
17 Feb - 13:13:49 10° WSW 13:19:54 17° SSW 13:27:03 10° S visible
18 Feb - 06:32:19 10° S 06:35:45 16° SSE 06:39:51 10° ESE night (unlit)
18 Feb - 08:32:21 10° SW 08:38:03 29° S 08:45:56 10° ESE visible
18 Feb - 10:34:31 10° WSW 10:41:16 29° S 10:50:30 10° SE visible
18 Feb - 12:38:41 10° WSW 12:44:46 18° SSW 12:52:07 10° S visible
19 Feb - 05:58:51 10° SSE 06:01:08 12° SE 06:03:40 10° ESE night (unlit)
19 Feb - 07:58:02 10° SW 08:03:14 27° SSE 08:10:15 10° ESE visible
19 Feb - 09:59:58 10° WSW 10:06:15 29° S 10:14:55 10° SE visible
19 Feb - 12:03:42 10° WSW 12:09:41 19° SSW 12:17:03 10° SSE visible
